Time,TemperatureF,DewpointF,PressureIn,WindDirection,WindDirectionDegrees,WindSpeedMPH,WindSpeedGustMPH,Humidity,HourlyPrecipIn,Conditions,Clouds,dailyrainin,SoftwareType,DateUTC
2013-03-02 00:02:00,38.0,28.0,29.76,ESE,114,1.0,3.0,66,0.00,,,0.00,,2013-03-02 05:02:00,
2013-03-02 00:12:00,38.0,28.0,29.76,ESE,114,1.0,3.0,66,0.00,,,0.00,,2013-03-02 05:12:00,
2013-03-02 00:22:00,37.0,26.0,29.76,SW,221,2.0,5.0,65,0.00,,,0.00,,2013-03-02 05:22:00,
2013-03-02 00:32:00,37.0,26.0,29.76,NE,50,1.0,7.0,65,0.00,,,0.00,,2013-03-02 05:32:00,
2013-03-02 00:42:00,37.0,26.0,29.76,NE,50,1.0,7.0,65,0.00,,,0.00,,2013-03-02 05:42:00,
2013-03-02 00:52:00,37.0,26.0,29.76,North,5,1.0,5.0,64,0.00,,,0.00,,2013-03-02 05:52:00,
2013-03-02 01:02:00,37.0,26.0,29.76,ENE,73,1.0,5.0,65,0.00,,,0.00,,2013-03-02 06:02:00,
2013-03-02 01:11:00,37.0,26.0,29.76,ENE,73,1.0,5.0,65,0.00,,,0.00,,2013-03-02 06:11:00,
2013-03-02 01:21:00,37.0,27.0,29.76,NNE,15,1.0,5.0,66,0.00,,,0.00,,2013-03-02 06:21:00,
2013-03-02 01:32:00,37.0,27.0,29.76,NE,35,1.0,5.0,66,0.00,,,0.00,,2013-03-02 06:32:00,
2013-03-02 01:42:00,37.0,27.0,29.76,NE,35,1.0,5.0,66,0.00,,,0.00,,2013-03-02 06:42:00,
2013-03-02 01:52:00,36.0,26.0,29.76,NW,317,1.0,6.0,67,0.00,,,0.00,,2013-03-02 06:52:00,
2013-03-02 02:02:00,36.0,25.0,29.77,NE,43,2.0,7.0,65,0.00,,,0.00,,2013-03-02 07:02:00,
2013-03-02 02:11:00,36.0,26.0,29.76,NNW,335,2.0,6.0,66,0.00,,,0.00,,2013-03-02 07:11:00,
2013-03-02 02:21:00,36.0,26.0,29.76,NNW,335,2.0,6.0,66,0.00,,,0.00,,2013-03-02 07:21:00,
2013-03-02 02:32:00,36.0,25.0,29.77,SE,128,0.0,6.0,65,0.00,,,0.00,,2013-03-02 07:32:00,
2013-03-02 02:42:00,36.0,25.0,29.77,SE,128,0.0,6.0,65,0.00,,,0.00,,2013-03-02 07:42:00,
2013-03-02 02:51:00,35.0,24.0,29.77,North,357,1.0,6.0,65,0.00,,,0.00,,2013-03-02 07:51:00,
2013-03-02 03:01:00,35.0,25.0,29.76,North,0,1.0,6.0,67,0.00,,,0.00,,2013-03-02 08:01:00,
2013-03-02 03:11:00,35.0,25.0,29.76,North,0,1.0,6.0,67,0.00,,,0.00,,2013-03-02 08:11:00,
2013-03-02 03:22:00,35.0,25.0,29.76,ESE,104,1.0,5.0,67,0.00,,,0.00,,2013-03-02 08:22:00,
2013-03-02 03:32:00,35.0,25.0,29.77,NW,317,2.0,7.0,67,0.00,,,0.00,,2013-03-02 08:32:00,
2013-03-02 03:42:00,35.0,25.0,29.77,NW,317,2.0,7.0,67,0.00,,,0.00,,2013-03-02 08:42:00,
2013-03-02 03:52:00,35.0,25.0,29.77,NNE,31,1.0,3.0,67,0.00,,,0.00,,2013-03-02 08:52:00,
2013-03-02 04:02:00,35.0,25.0,29.77,NNE,16,1.0,5.0,67,0.00,,,0.00,,2013-03-02 09:02:00,
2013-03-02 04:11:00,35.0,25.0,29.77,West,272,0.0,3.0,67,0.00,,,0.00,,2013-03-02 09:11:00,
2013-03-02 04:22:00,35.0,25.0,29.77,West,272,0.0,3.0,67,0.00,,,0.00,,2013-03-02 09:22:00,
2013-03-02 04:32:00,35.0,26.0,29.77,South,185,0.0,5.0,68,0.00,,,0.00,,2013-03-02 09:32:00,
2013-03-02 04:42:00,35.0,26.0,29.77,South,185,0.0,5.0,68,0.00,,,0.00,,2013-03-02 09:42:00,
2013-03-02 04:52:00,35.0,26.0,29.77,North,11,0.0,5.0,68,0.00,,,0.00,,2013-03-02 09:52:00,
2013-03-02 05:02:00,35.0,26.0,29.77,NE,47,2.0,5.0,69,0.00,,,0.00,,2013-03-02 10:02:00,
2013-03-02 05:16:00,35.0,26.0,29.77,NE,47,2.0,5.0,69,0.00,,,0.00,,2013-03-02 10:16:00,
2013-03-02 05:22:00,35.0,26.0,29.77,NNW,337,0.0,5.0,69,0.00,,,0.00,,2013-03-02 10:22:00,
2013-03-02 05:32:00,35.0,26.0,29.76,South,185,1.0,6.0,69,0.00,,,0.00,,2013-03-02 10:32:00,
2013-03-02 05:43:00,35.0,26.0,29.76,South,185,1.0,6.0,69,0.00,,,0.00,,2013-03-02 10:43:00,
2013-03-02 05:52:00,34.0,25.0,29.76,SW,218,2.0,7.0,69,0.00,,,0.00,,2013-03-02 10:52:00,
2013-03-02 06:01:00,34.0,25.0,29.76,NW,316,2.0,6.0,69,0.00,,,0.00,,2013-03-02 11:01:00,
2013-03-02 06:11:00,34.0,25.0,29.76,NW,316,2.0,6.0,69,0.00,,,0.00,,2013-03-02 11:11:00,
2013-03-02 06:21:00,34.0,25.0,29.77,NW,312,1.0,6.0,69,0.00,,,0.00,,2013-03-02 11:21:00,
2013-03-02 06:32:00,34.0,25.0,29.77,SSE,150,0.0,3.0,69,0.00,,,0.00,,2013-03-02 11:32:00,
2013-03-02 06:42:00,34.0,25.0,29.77,SSE,150,0.0,3.0,69,0.00,,,0.00,,2013-03-02 11:42:00,
2013-03-02 06:52:00,34.0,25.0,29.77,West,264,1.0,3.0,69,0.00,,,0.00,,2013-03-02 11:52:00,
2013-03-02 07:02:00,34.0,25.0,29.77,NNW,341,1.0,3.0,69,0.00,,,0.00,,2013-03-02 12:02:00,
2013-03-02 07:11:00,34.0,25.0,29.77,NNW,341,1.0,3.0,69,0.00,,,0.00,,2013-03-02 12:11:00,
2013-03-02 07:22:00,34.0,25.0,29.78,WNW,282,0.0,6.0,69,0.00,,,0.00,,2013-03-02 12:22:00,
2013-03-02 07:33:00,34.0,25.0,29.78,SW,232,0.0,2.0,69,0.00,,,0.00,,2013-03-02 12:33:00,
2013-03-02 07:43:00,34.0,25.0,29.78,SW,232,0.0,2.0,69,0.00,,,0.00,,2013-03-02 12:43:00,
2013-03-02 07:53:00,34.0,25.0,29.78,SSW,206,0.0,3.0,69,0.00,,,0.00,,2013-03-02 12:53:00,
2013-03-02 08:01:00,35.0,26.0,29.78,WNW,288,0.0,2.0,68,0.00,,,0.00,,2013-03-02 13:01:00,
2013-03-02 08:11:00,35.0,26.0,29.78,WNW,288,0.0,2.0,68,0.00,,,0.00,,2013-03-02 13:11:00,
2013-03-02 08:22:00,35.0,26.0,29.78,South,180,0.0,3.0,68,0.00,,,0.00,,2013-03-02 13:22:00,
2013-03-02 08:32:00,35.0,25.0,29.78,North,9,1.0,5.0,67,0.00,,,0.00,,2013-03-02 13:32:00,
2013-03-02 08:42:00,35.0,25.0,29.78,North,9,1.0,5.0,67,0.00,,,0.00,,2013-03-02 13:42:00,
2013-03-02 08:52:00,35.0,25.0,29.78,SW,215,1.0,3.0,67,0.00,,,0.00,,2013-03-02 13:52:00,
2013-03-02 09:01:00,36.0,25.0,29.77,North,2,2.0,5.0,65,0.00,,,0.00,,2013-03-02 14:01:00,
2013-03-02 09:11:00,36.0,25.0,29.77,North,2,2.0,5.0,65,0.00,,,0.00,,2013-03-02 14:11:00,
2013-03-02 09:22:00,37.0,26.0,29.77,NE,53,2.0,5.0,64,0.00,,,0.00,,2013-03-02 14:22:00,
2013-03-02 09:32:00,38.0,26.0,29.76,South,180,2.0,6.0,61,0.00,,,0.00,,2013-03-02 14:32:00,
2013-03-02 09:42:00,38.0,26.0,29.76,South,180,2.0,6.0,61,0.00,,,0.00,,2013-03-02 14:42:00,
2013-03-02 09:52:00,38.0,25.0,29.76,NNW,338,1.0,3.0,60,0.00,,,0.00,,2013-03-02 14:52:00,
2013-03-02 10:02:00,39.0,25.0,29.76,NW,314,1.0,5.0,58,0.00,,,0.00,,2013-03-02 15:02:00,
2013-03-02 10:11:00,39.0,25.0,29.76,NW,314,1.0,5.0,58,0.00,,,0.00,,2013-03-02 15:11:00,
2013-03-02 10:22:00,40.0,26.0,29.75,South,175,1.0,6.0,58,0.00,,,0.00,,2013-03-02 15:22:00,
2013-03-02 10:32:00,40.0,26.0,29.76,NNE,32,1.0,7.0,57,0.00,,,0.00,,2013-03-02 15:32:00,
2013-03-02 10:42:00,40.0,26.0,29.76,NNE,32,1.0,7.0,57,0.00,,,0.00,,2013-03-02 15:42:00,
2013-03-02 10:52:00,40.0,26.0,29.75,NNE,21,1.0,5.0,57,0.00,,,0.00,,2013-03-02 15:52:00,
2013-03-02 11:02:00,40.0,26.0,29.75,West,272,1.0,3.0,57,0.00,,,0.00,,2013-03-02 16:02:00,
2013-03-02 11:11:00,40.0,26.0,29.75,West,272,1.0,3.0,57,0.00,,,0.00,,2013-03-02 16:11:00,
2013-03-02 11:21:00,40.0,26.0,29.75,SSE,164,0.0,6.0,58,0.00,,,0.00,,2013-03-02 16:21:00,
2013-03-02 11:32:00,41.0,27.0,29.75,South,185,1.0,3.0,56,0.00,,,0.00,,2013-03-02 16:32:00,
2013-03-02 11:42:00,41.0,27.0,29.75,South,185,1.0,3.0,56,0.00,,,0.00,,2013-03-02 16:42:00,
2013-03-02 11:52:00,41.0,26.0,29.75,SSW,207,1.0,5.0,55,0.00,,,0.00,,2013-03-02 16:52:00,
2013-03-02 12:01:00,41.0,26.0,29.75,North,11,0.0,3.0,55,0.00,,,0.00,,2013-03-02 17:01:00,
2013-03-02 12:11:00,41.0,26.0,29.75,North,11,0.0,3.0,55,0.00,,,0.00,,2013-03-02 17:11:00,
2013-03-02 12:21:00,40.0,26.0,29.74,NNW,329,1.0,5.0,56,0.00,,,0.00,,2013-03-02 17:21:00,
2013-03-02 12:32:00,40.0,26.0,29.73,SW,232,0.0,3.0,57,0.00,,,0.00,,2013-03-02 17:32:00,
2013-03-02 12:42:00,40.0,26.0,29.73,SW,232,0.0,3.0,57,0.00,,,0.00,,2013-03-02 17:42:00,
2013-03-02 12:52:00,40.0,26.0,29.73,ENE,72,0.0,3.0,58,0.00,,,0.00,,2013-03-02 17:52:00,
2013-03-02 13:02:00,40.0,26.0,29.73,North,7,0.0,3.0,58,0.00,,,0.00,,2013-03-02 18:02:00,
2013-03-02 13:11:00,40.0,26.0,29.73,North,7,0.0,3.0,58,0.00,,,0.00,,2013-03-02 18:11:00,
2013-03-02 13:22:00,39.0,25.0,29.72,SSE,168,2.0,7.0,58,0.00,,,0.00,,2013-03-02 18:22:00,
2013-03-02 13:32:00,39.0,26.0,29.72,West,273,1.0,7.0,59,0.00,,,0.00,,2013-03-02 18:32:00,
2013-03-02 13:42:00,39.0,26.0,29.72,West,273,1.0,7.0,59,0.00,,,0.00,,2013-03-02 18:42:00,
2013-03-02 13:52:00,39.0,26.0,29.72,NNW,341,1.0,7.0,59,0.00,,,0.00,,2013-03-02 18:52:00,
2013-03-02 14:02:00,40.0,27.0,29.72,NW,306,0.0,3.0,60,0.00,,,0.00,,2013-03-02 19:02:00,
2013-03-02 14:12:00,40.0,27.0,29.72,NW,306,0.0,3.0,60,0.00,,,0.00,,2013-03-02 19:12:00,
2013-03-02 14:22:00,40.0,27.0,29.71,North,7,2.0,5.0,59,0.00,,,0.00,,2013-03-02 19:22:00,
2013-03-02 14:32:00,40.0,27.0,29.71,SSW,211,1.0,7.0,59,0.00,,,0.00,,2013-03-02 19:32:00,
2013-03-02 14:42:00,40.0,27.0,29.71,SSW,211,1.0,7.0,59,0.00,,,0.00,,2013-03-02 19:42:00,
2013-03-02 14:52:00,40.0,27.0,29.70,South,184,1.0,5.0,60,0.00,,,0.00,,2013-03-02 19:52:00,
2013-03-02 15:02:00,40.0,28.0,29.70,NE,54,1.0,3.0,61,0.00,,,0.00,,2013-03-02 20:02:00,
2013-03-02 15:11:00,40.0,28.0,29.70,NE,54,1.0,3.0,61,0.00,,,0.00,,2013-03-02 20:11:00,
2013-03-02 15:22:00,40.0,28.0,29.70,NE,54,1.0,3.0,61,0.00,,,0.00,,2013-03-02 20:22:00,
2013-03-02 15:32:00,39.0,27.0,29.70,ESE,120,1.0,3.0,61,0.00,,,0.00,,2013-03-02 20:32:00,
2013-03-02 15:42:00,39.0,27.0,29.70,ESE,120,1.0,3.0,61,0.00,,,0.00,,2013-03-02 20:42:00,
2013-03-02 15:53:00,39.0,27.0,29.70,NNW,336,0.0,5.0,62,0.00,,,0.00,,2013-03-02 20:53:00,
2013-03-02 16:02:00,39.0,27.0,29.70,South,178,0.0,5.0,62,0.00,,,0.00,,2013-03-02 21:02:00,
2013-03-02 16:11:00,39.0,27.0,29.70,South,178,0.0,5.0,62,0.00,,,0.00,,2013-03-02 21:11:00,
2013-03-02 16:22:00,39.0,27.0,29.70,SW,222,0.0,3.0,62,0.00,,,0.00,,2013-03-02 21:22:00,
2013-03-02 16:32:00,39.0,27.0,29.70,NNE,23,1.0,5.0,61,0.00,,,0.00,,2013-03-02 21:32:00,
2013-03-02 16:42:00,39.0,27.0,29.70,NNE,23,1.0,5.0,61,0.00,,,0.00,,2013-03-02 21:42:00,
2013-03-02 16:52:00,39.0,27.0,29.70,South,187,0.0,5.0,61,0.00,,,0.00,,2013-03-02 21:52:00,
2013-03-02 17:02:00,39.0,26.0,29.70,WNW,291,0.0,3.0,60,0.00,,,0.00,,2013-03-02 22:02:00,
2013-03-02 17:11:00,39.0,26.0,29.70,WNW,291,0.0,3.0,60,0.00,,,0.00,,2013-03-02 22:11:00,
2013-03-02 17:22:00,39.0,26.0,29.71,NNW,347,1.0,6.0,60,0.00,,,0.00,,2013-03-02 22:22:00,
2013-03-02 17:32:00,38.0,25.0,29.71,SW,229,1.0,7.0,60,0.00,,,0.00,,2013-03-02 22:32:00,
2013-03-02 17:42:00,38.0,25.0,29.71,SW,229,1.0,7.0,60,0.00,,,0.00,,2013-03-02 22:42:00,
2013-03-02 17:52:00,38.0,26.0,29.71,WSW,245,1.0,5.0,61,0.00,,,0.00,,2013-03-02 22:52:00,
2013-03-02 18:01:00,38.0,27.0,29.72,WNW,291,1.0,5.0,63,0.00,,,0.00,,2013-03-02 23:01:00,
2013-03-02 18:11:00,38.0,27.0,29.72,East,101,0.0,6.0,63,0.00,,,0.00,,2013-03-02 23:11:00,
2013-03-02 18:21:00,38.0,27.0,29.72,East,101,0.0,6.0,63,0.00,,,0.00,,2013-03-02 23:21:00,
2013-03-02 18:32:00,37.0,26.0,29.72,SW,234,0.0,5.0,63,0.00,,,0.00,,2013-03-02 23:32:00,
2013-03-02 18:42:00,37.0,26.0,29.72,SW,234,0.0,5.0,63,0.00,,,0.00,,2013-03-02 23:42:00,
2013-03-02 18:52:00,37.0,26.0,29.73,West,265,0.0,2.0,63,0.00,,,0.00,,2013-03-02 23:52:00,
2013-03-02 19:02:00,37.0,26.0,29.73,West,278,1.0,5.0,64,0.00,,,0.00,,2013-03-03 00:02:00,
2013-03-02 19:11:00,37.0,26.0,29.73,West,278,1.0,5.0,64,0.00,,,0.00,,2013-03-03 00:11:00,
2013-03-02 19:22:00,37.0,27.0,29.74,SSE,152,1.0,5.0,66,0.00,,,0.00,,2013-03-03 00:22:00,
2013-03-02 19:32:00,37.0,27.0,29.74,North,10,0.0,2.0,68,0.00,,,0.00,,2013-03-03 00:32:00,
2013-03-02 19:42:00,37.0,27.0,29.74,North,10,0.0,2.0,68,0.00,,,0.00,,2013-03-03 00:42:00,
2013-03-02 19:52:00,36.0,27.0,29.74,NW,317,1.0,6.0,69,0.00,,,0.00,,2013-03-03 00:52:00,
2013-03-02 20:01:00,36.0,27.0,29.74,NNE,28,0.0,5.0,70,0.00,,,0.00,,2013-03-03 01:01:00,
2013-03-02 20:11:00,36.0,27.0,29.74,NNE,28,0.0,5.0,70,0.00,,,0.00,,2013-03-03 01:11:00,
2013-03-02 20:21:00,35.0,27.0,29.74,NNW,343,2.0,7.0,71,0.00,,,0.00,,2013-03-03 01:21:00,
2013-03-02 20:32:00,34.0,27.0,29.75,East,85,1.0,6.0,76,0.00,,,0.00,,2013-03-03 01:32:00,
2013-03-02 20:42:00,34.0,27.0,29.75,East,85,1.0,6.0,76,0.00,,,0.00,,2013-03-03 01:42:00,
2013-03-02 20:52:00,34.0,28.0,29.75,North,358,0.0,3.0,78,0.00,,,0.00,,2013-03-03 01:52:00,
2013-03-02 21:01:00,33.0,28.0,29.75,WSW,252,1.0,5.0,81,0.00,,,0.00,,2013-03-03 02:01:00,
2013-03-02 21:11:00,33.0,28.0,29.75,WSW,252,1.0,5.0,81,0.00,,,0.00,,2013-03-03 02:11:00,
2013-03-02 21:21:00,33.0,28.0,29.75,WSW,248,0.0,2.0,82,0.00,,,0.00,,2013-03-03 02:21:00,
2013-03-02 21:32:00,33.0,29.0,29.74,NE,39,0.0,2.0,84,0.00,,,0.00,,2013-03-03 02:32:00,
2013-03-02 21:42:00,33.0,29.0,29.74,NE,39,0.0,2.0,84,0.00,,,0.00,,2013-03-03 02:42:00,
2013-03-02 21:52:00,33.0,29.0,29.74,ENE,74,1.0,5.0,84,0.00,,,0.00,,2013-03-03 02:52:00,
2013-03-02 22:01:00,32.0,27.0,29.74,NNW,341,0.0,5.0,83,0.00,,,0.00,,2013-03-03 03:01:00,
2013-03-02 22:11:00,32.0,27.0,29.74,NNW,341,0.0,5.0,83,0.00,,,0.00,,2013-03-03 03:11:00,
2013-03-02 22:21:00,32.0,28.0,29.74,SSW,193,0.0,7.0,84,0.00,,,0.00,,2013-03-03 03:21:00,
2013-03-02 22:32:00,32.0,27.0,29.74,NNE,33,1.0,6.0,83,0.00,,,0.00,,2013-03-03 03:32:00,
2013-03-02 22:42:00,32.0,27.0,29.74,NNE,33,1.0,6.0,83,0.00,,,0.00,,2013-03-03 03:42:00,
2013-03-02 22:52:00,32.0,27.0,29.74,NNW,347,2.0,5.0,83,0.00,,,0.00,,2013-03-03 03:52:00,
2013-03-02 23:01:00,32.0,27.0,29.74,NW,312,0.0,3.0,83,0.00,,,0.00,,2013-03-03 04:01:00,
2013-03-02 23:11:00,32.0,27.0,29.74,NW,312,0.0,3.0,83,0.00,,,0.00,,2013-03-03 04:11:00,
2013-03-02 23:21:00,32.0,27.0,29.74,SW,226,1.0,3.0,82,0.00,,,0.00,,2013-03-03 04:21:00,
2013-03-02 23:32:00,32.0,27.0,29.73,WSW,251,1.0,5.0,80,0.00,,,0.00,,2013-03-03 04:32:00,
2013-03-02 23:42:00,32.0,27.0,29.73,WSW,251,1.0,5.0,80,0.00,,,0.00,,2013-03-03 04:42:00,
2013-03-02 23:51:00,32.0,27.0,29.73,NE,34,1.0,5.0,80,0.00,,,0.00,,2013-03-03 04:51:00,